Location: �chemir�
(47.5500°N, 0.1667°W)
Time: 16:13:38
(UTC+02:00)

ISS - Pass Details

Date: 19 May 2021
Orbit: 419 x 422 km, 51.6° (Epoch: 25 June)

Event Time Altitude Azimuth Distance (km) Brightness Sun altitude
Rises 00:19:24 0° 276° (W) 2,370 0.5 -19.2°
Reaches altitude 10° 00:21:35 10° 285° (WNW) 1,507 -0.4 -19.3°
Maximum altitude 00:24:48 40° 356° (N) 641 -2.4 -19.6°
Drops below altitude 10° 00:28:01 10° 68° (ENE) 1,509 -0.9 -19.8°
Enters shadow 00:28:39 - 71° (ENE) 1,752 -0.6 -19.8°
